Time,TemperatureF,DewpointF,PressureIn,WindDirection,WindDirectionDegrees,WindSpeedMPH,WindSpeedGustMPH,Humidity,HourlyPrecipIn,Conditions,Clouds,dailyrainin,SoftwareType,DateUTC
2013-05-09 00:11:00,66.1,61.0,29.97,SW,229,3.0,8.0,84,0.06,,,0.06,weatherlink.com 1.10,2013-05-09 05:11:00,
2013-05-09 00:26:00,65.7,62.0,29.99,West,271,8.0,18.0,87,0.10,,,0.10,weatherlink.com 1.10,2013-05-09 05:26:00,
2013-05-09 00:41:00,63.6,60.0,29.97,WSW,258,7.0,19.0,88,0.18,,,0.20,weatherlink.com 1.10,2013-05-09 05:41:00,
2013-05-09 00:56:00,62.8,60.0,29.94,NW,312,5.0,11.0,90,0.20,,,0.23,weatherlink.com 1.10,2013-05-09 05:56:00,
2013-05-09 01:11:00,62.7,60.0,29.91,ESE,108,7.0,8.0,91,0.20,,,0.26,weatherlink.com 1.10,2013-05-09 06:11:00,
2013-05-09 01:26:00,63.0,60.0,29.93,SSW,197,6.0,8.0,91,0.16,,,0.27,weatherlink.com 1.10,2013-05-09 06:26:00,
2013-05-09 01:41:00,62.8,61.0,29.92,SSW,198,5.0,8.0,92,0.10,,,0.30,weatherlink.com 1.10,2013-05-09 06:41:00,
2013-05-09 01:56:00,62.7,61.0,29.91,South,175,9.0,11.0,93,0.08,,,0.31,weatherlink.com 1.10,2013-05-09 06:56:00,
2013-05-09 02:11:00,62.8,61.0,29.92,South,187,6.0,11.0,93,0.05,,,0.31,weatherlink.com 1.10,2013-05-09 07:11:00,
2013-05-09 02:26:00,63.1,61.0,29.90,South,176,8.0,15.0,92,0.03,,,0.31,weatherlink.com 1.10,2013-05-09 07:26:00,
2013-05-09 02:41:00,62.9,60.0,29.90,South,175,8.0,10.0,91,0.01,,,0.31,weatherlink.com 1.10,2013-05-09 07:41:00,
2013-05-09 02:56:00,62.8,60.0,29.89,SSW,205,2.0,8.0,90,0.00,,,0.31,weatherlink.com 1.10,2013-05-09 07:56:00,
2013-05-09 03:11:00,63.8,59.0,29.88,SSE,152,8.0,15.0,85,0.00,,,0.31,weatherlink.com 1.10,2013-05-09 08:11:00,
2013-05-09 03:26:00,64.2,59.0,29.87,South,170,11.0,15.0,84,0.00,,,0.31,weatherlink.com 1.10,2013-05-09 08:26:00,
2013-05-09 03:41:00,64.4,60.0,29.87,SSE,165,8.0,14.0,84,0.00,,,0.31,weatherlink.com 1.10,2013-05-09 08:41:00,
2013-05-09 03:56:00,64.0,60.0,29.87,South,169,4.0,11.0,86,0.00,,,0.31,weatherlink.com 1.10,2013-05-09 08:56:00,
2013-05-09 04:11:00,64.1,60.0,29.87,SSW,192,7.0,11.0,87,0.00,,,0.31,weatherlink.com 1.10,2013-05-09 09:11:00,
2013-05-09 04:26:00,62.3,56.0,29.95,NW,315,22.0,28.0,81,0.00,,,0.31,weatherlink.com 1.10,2013-05-09 09:26:00,
2013-05-09 04:41:00,58.9,56.0,29.96,WNW,283,9.0,21.0,91,0.24,,,0.55,weatherlink.com 1.10,2013-05-09 09:41:00,
2013-05-09 04:56:00,59.0,57.0,29.96,West,267,11.0,17.0,93,0.27,,,0.58,weatherlink.com 1.10,2013-05-09 09:56:00,
2013-05-09 05:11:00,59.9,57.0,29.95,West,279,8.0,19.0,91,0.28,,,0.59,weatherlink.com 1.10,2013-05-09 10:11:00,
2013-05-09 05:26:00,60.3,58.0,29.96,NNW,327,17.0,18.0,91,0.29,,,0.61,weatherlink.com 1.10,2013-05-09 10:26:00,
2013-05-09 05:41:00,60.3,58.0,29.96,NW,325,4.0,11.0,92,0.08,,,0.64,weatherlink.com 1.10,2013-05-09 10:41:00,
2013-05-09 05:56:00,60.2,58.0,29.94,North,360,10.0,15.0,92,0.08,,,0.66,weatherlink.com 1.10,2013-05-09 10:56:00,
2013-05-09 06:11:00,60.1,58.0,29.91,NNE,16,6.0,10.0,92,0.07,,,0.67,weatherlink.com 1.10,2013-05-09 11:11:00,
2013-05-09 06:26:00,60.3,58.0,29.93,NNW,328,2.0,5.0,92,0.05,,,0.67,weatherlink.com 1.10,2013-05-09 11:26:00,
2013-05-09 06:41:00,60.0,58.0,29.90,ESE,118,2.0,10.0,93,0.03,,,0.67,weatherlink.com 1.10,2013-05-09 11:41:00,
2013-05-09 06:56:00,60.2,58.0,29.93,East,92,0.0,7.0,93,0.01,,,0.67,weatherlink.com 1.10,2013-05-09 11:56:00,
2013-05-09 07:11:00,60.1,58.0,29.95,NE,50,0.0,3.0,93,0.00,,,0.67,weatherlink.com 1.10,2013-05-09 12:11:00,
2013-05-09 07:26:00,60.0,58.0,29.95,East,82,2.0,3.0,93,0.00,,,0.67,weatherlink.com 1.10,2013-05-09 12:26:00,
2013-05-09 07:41:00,60.0,58.0,29.95,SE,140,4.0,5.0,94,0.00,,,0.67,weatherlink.com 1.10,2013-05-09 12:41:00,
2013-05-09 07:56:00,60.0,58.0,29.95,South,174,4.0,6.0,94,0.00,,,0.67,weatherlink.com 1.10,2013-05-09 12:56:00,
2013-05-09 08:11:00,60.2,59.0,29.96,SSE,159,7.0,9.0,95,0.00,,,0.67,weatherlink.com 1.10,2013-05-09 13:11:00,
2013-05-09 08:26:00,60.6,59.0,29.96,SSE,153,6.0,8.0,94,0.00,,,0.67,weatherlink.com 1.10,2013-05-09 13:26:00,
2013-05-09 08:42:00,61.2,60.0,29.96,South,170,4.0,8.0,94,0.00,,,0.67,weatherlink.com 1.10,2013-05-09 13:42:00,
2013-05-09 08:57:00,62.0,60.0,29.96,SSE,164,6.0,9.0,93,0.00,,,0.67,weatherlink.com 1.10,2013-05-09 13:57:00,
2013-05-09 09:12:00,62.3,60.0,29.96,South,187,12.0,14.0,91,0.00,,,0.67,weatherlink.com 1.10,2013-05-09 14:12:00,
2013-05-09 09:27:00,62.5,60.0,29.97,SSW,208,6.0,12.0,91,0.00,,,0.67,weatherlink.com 1.10,2013-05-09 14:27:00,
2013-05-09 09:42:00,62.7,60.0,29.96,South,178,9.0,11.0,89,0.00,,,0.67,weatherlink.com 1.10,2013-05-09 14:42:00,
2013-05-09 09:57:00,63.2,60.0,29.96,SSW,193,7.0,12.0,89,0.00,,,0.67,weatherlink.com 1.10,2013-05-09 14:57:00,
2013-05-09 10:12:00,64.0,60.0,29.97,South,188,4.0,12.0,88,0.00,,,0.67,weatherlink.com 1.10,2013-05-09 15:12:00,
2013-05-09 10:27:00,64.8,60.0,29.97,SSE,158,14.0,15.0,85,0.00,,,0.67,weatherlink.com 1.10,2013-05-09 15:27:00,
2013-05-09 10:42:00,65.6,61.0,29.96,South,188,12.0,14.0,84,0.00,,,0.67,weatherlink.com 1.10,2013-05-09 15:42:00,
2013-05-09 10:57:00,66.0,61.0,29.97,South,184,8.0,11.0,83,0.00,,,0.67,weatherlink.com 1.10,2013-05-09 15:57:00,
2013-05-09 11:12:00,67.4,62.0,29.97,SSW,195,14.0,14.0,82,0.00,,,0.67,weatherlink.com 1.10,2013-05-09 16:12:00,
2013-05-09 11:27:00,67.4,60.0,29.98,SSW,196,8.0,15.0,78,0.00,,,0.67,weatherlink.com 1.10,2013-05-09 16:27:00,
2013-05-09 11:42:00,66.9,61.0,29.97,SSE,162,9.0,14.0,80,0.00,,,0.67,weatherlink.com 1.10,2013-05-09 16:42:00,
2013-05-09 11:57:00,67.2,61.0,29.96,South,173,6.0,12.0,79,0.00,,,0.67,weatherlink.com 1.10,2013-05-09 16:57:00,
2013-05-09 12:12:00,67.9,62.0,29.96,SSW,203,6.0,11.0,80,0.00,,,0.67,weatherlink.com 1.10,2013-05-09 17:12:00,
2013-05-09 12:27:00,68.8,62.0,29.95,South,182,14.0,14.0,79,0.00,,,0.67,weatherlink.com 1.10,2013-05-09 17:27:00,
2013-05-09 12:42:00,70.4,63.0,29.93,SSW,212,9.0,16.0,77,0.00,,,0.67,weatherlink.com 1.10,2013-05-09 17:42:00,
2013-05-09 12:57:00,71.3,64.0,29.94,South,175,13.0,17.0,77,0.00,,,0.67,weatherlink.com 1.10,2013-05-09 17:57:00,
2013-05-09 13:12:00,71.1,64.0,29.95,South,175,11.0,15.0,77,0.00,,,0.67,weatherlink.com 1.10,2013-05-09 18:12:00,
2013-05-09 13:27:00,71.0,63.0,29.95,South,173,12.0,17.0,75,0.00,,,0.67,weatherlink.com 1.10,2013-05-09 18:27:00,
2013-05-09 13:42:00,71.5,64.0,29.95,SSE,160,8.0,15.0,76,0.00,,,0.67,weatherlink.com 1.10,2013-05-09 18:42:00,
2013-05-09 13:57:00,72.2,64.0,29.95,South,173,10.0,17.0,74,0.00,,,0.67,weatherlink.com 1.10,2013-05-09 18:57:00,
2013-05-09 14:12:00,72.2,64.0,29.95,South,188,8.0,15.0,74,0.00,,,0.67,weatherlink.com 1.10,2013-05-09 19:12:00,
2013-05-09 14:27:00,71.9,63.0,29.95,South,177,8.0,15.0,74,0.00,,,0.67,weatherlink.com 1.10,2013-05-09 19:27:00,
2013-05-09 14:57:00,71.6,64.0,29.95,South,171,13.0,13.0,76,0.00,,,0.67,weatherlink.com 1.10,2013-05-09 19:57:00,
2013-05-09 15:12:00,70.8,64.0,29.95,SW,228,8.0,13.0,78,0.00,,,0.67,weatherlink.com 1.10,2013-05-09 20:12:00,
2013-05-09 15:27:00,69.0,64.0,29.95,SSW,194,7.0,12.0,85,0.00,,,0.00,weatherlink.com 1.10,2013-05-09 20:27:00,
2013-05-09 15:42:00,68.7,65.0,29.95,SW,224,5.0,7.0,87,0.00,,,0.00,weatherlink.com 1.10,2013-05-09 20:42:00,
2013-05-09 15:57:00,68.4,65.0,29.95,SSW,211,5.0,8.0,88,0.00,,,0.00,weatherlink.com 1.10,2013-05-09 20:57:00,
2013-05-09 16:12:00,67.6,65.0,29.94,SSW,209,3.0,6.0,91,0.00,,,0.00,weatherlink.com 1.10,2013-05-09 21:12:00,
2013-05-09 16:27:00,67.1,65.0,29.94,SSW,208,1.0,4.0,93,0.01,,,0.01,weatherlink.com 1.10,2013-05-09 21:27:00,
2013-05-09 16:42:00,67.1,65.0,29.94,SW,218,0.0,3.0,93,0.01,,,0.01,weatherlink.com 1.10,2013-05-09 21:42:00,
2013-05-09 16:57:00,67.1,65.0,29.95,SW,229,1.0,6.0,94,0.01,,,0.01,weatherlink.com 1.10,2013-05-09 21:57:00,
2013-05-09 17:12:00,67.0,65.0,29.94,WSW,241,0.0,5.0,93,0.01,,,0.01,weatherlink.com 1.10,2013-05-09 22:12:00,
2013-05-09 17:27:00,67.1,65.0,29.95,WSW,242,2.0,5.0,93,0.00,,,0.01,weatherlink.com 1.10,2013-05-09 22:27:00,
2013-05-09 17:42:00,67.2,65.0,29.95,WSW,238,3.0,4.0,93,0.00,,,0.01,weatherlink.com 1.10,2013-05-09 22:42:00,
2013-05-09 17:57:00,66.8,65.0,29.94,WSW,250,2.0,6.0,93,0.00,,,0.01,weatherlink.com 1.10,2013-05-09 22:57:00,
2013-05-09 18:12:00,66.5,65.0,29.94,SW,225,0.0,5.0,94,0.00,,,0.01,weatherlink.com 1.10,2013-05-09 23:12:00,
2013-05-09 18:27:00,66.3,65.0,29.93,WSW,249,0.0,5.0,94,0.02,,,0.03,weatherlink.com 1.10,2013-05-09 23:27:00,
2013-05-09 18:42:00,66.3,65.0,29.93,WSW,240,0.0,6.0,95,0.02,,,0.03,weatherlink.com 1.10,2013-05-09 23:42:00,
2013-05-09 18:57:00,66.4,65.0,29.93,WSW,246,4.0,5.0,95,0.02,,,0.03,weatherlink.com 1.10,2013-05-09 23:57:00,
2013-05-09 19:12:00,66.5,65.0,29.92,WSW,245,0.0,2.0,95,0.02,,,0.03,weatherlink.com 1.10,2013-05-10 00:12:00,
2013-05-09 19:27:00,66.5,65.0,29.92,WSW,245,1.0,3.0,95,0.00,,,0.03,weatherlink.com 1.10,2013-05-10 00:27:00,
2013-05-09 19:42:00,66.6,65.0,29.92,WSW,245,0.0,2.0,95,0.00,,,0.03,weatherlink.com 1.10,2013-05-10 00:42:00,
2013-05-09 19:57:00,66.6,65.0,29.93,WSW,245,0.0,3.0,95,0.00,,,0.03,weatherlink.com 1.10,2013-05-10 00:57:00,
2013-05-09 20:12:00,66.6,65.0,29.93,WSW,245,0.0,2.0,95,0.00,,,0.03,weatherlink.com 1.10,2013-05-10 01:12:00,
2013-05-09 20:27:00,66.6,65.0,29.92,WSW,245,0.0,1.0,95,0.00,,,0.03,weatherlink.com 1.10,2013-05-10 01:27:00,
2013-05-09 20:42:00,66.5,65.0,29.93,WSW,245,0.0,1.0,95,0.00,,,0.03,weatherlink.com 1.10,2013-05-10 01:42:00,
2013-05-09 20:57:00,66.4,65.0,29.93,WSW,245,0.0,0.0,95,0.00,,,0.03,weatherlink.com 1.10,2013-05-10 01:57:00,
2013-05-09 21:12:00,66.3,65.0,29.93,WSW,245,0.0,0.0,95,0.00,,,0.03,weatherlink.com 1.10,2013-05-10 02:12:00,
2013-05-09 21:27:00,66.1,65.0,29.93,WSW,245,0.0,2.0,95,0.00,,,0.03,weatherlink.com 1.10,2013-05-10 02:27:00,
2013-05-09 21:42:00,65.9,65.0,29.94,WSW,245,0.0,0.0,95,0.00,,,0.03,weatherlink.com 1.10,2013-05-10 02:42:00,
2013-05-09 21:57:00,65.8,65.0,29.95,WSW,245,0.0,0.0,96,0.00,,,0.03,weatherlink.com 1.10,2013-05-10 02:57:00,
2013-05-09 22:12:00,65.6,65.0,29.96,WSW,245,0.0,1.0,96,0.00,,,0.03,weatherlink.com 1.10,2013-05-10 03:12:00,
2013-05-09 22:27:00,65.5,64.0,29.96,WSW,245,0.0,1.0,96,0.00,,,0.03,weatherlink.com 1.10,2013-05-10 03:27:00,
2013-05-09 22:42:00,65.6,65.0,29.96,WSW,246,1.0,3.0,96,0.00,,,0.03,weatherlink.com 1.10,2013-05-10 03:42:00,
2013-05-09 22:57:00,65.6,65.0,29.96,West,281,2.0,4.0,96,0.00,,,0.03,weatherlink.com 1.10,2013-05-10 03:57:00,
2013-05-09 23:12:00,65.6,65.0,29.96,West,280,3.0,4.0,96,0.01,,,0.04,weatherlink.com 1.10,2013-05-10 04:12:00,
2013-05-09 23:27:00,65.6,65.0,29.96,WSW,244,4.0,6.0,96,0.07,,,0.10,weatherlink.com 1.10,2013-05-10 04:27:00,
2013-05-09 23:42:00,63.8,62.0,29.95,SW,232,0.0,13.0,93,0.26,,,0.29,weatherlink.com 1.10,2013-05-10 04:42:00,
2013-05-09 23:57:00,63.4,62.0,29.95,SW,232,1.0,2.0,94,0.26,,,0.29,weatherlink.com 1.10,2013-05-10 04:57:00,